Regional Weather Roundup
Issued by NWS Sioux Falls, SD

Home | Current Version | Previous Version | Text Only | Print | Product List | Glossary On
Versions: 1 2 3 4 5 6 7 8 9 10 11 12 13 14 15 16 17 18 19 20 21 22 23 24 25 26 27 28 29 30 31 32 33 34 35 36 37 38 39 40 41 42 43 44 45 46 47 48 49 50
000
ASUS43 KFSD 292302
RWRFSD

WEATHER ROUNDUP FOR SE SOUTH DAKOTA/SW MINNESOTA/NW IOWA
NATIONAL WEATHER SERVICE SIOUX FALLS SD
600 PM CDT FRI AUG 29 2014

NOTE: "FAIR" INDICATES FEW OR NO CLOUDS BELOW 12,000 FEET WITH NO
SIGNIFICANT WEATHER AND OR OBSTRUCTIONS TO VISIBILITY.


SDZ038>040-050-052>070-300000-
SOUTHEAST SOUTH DAKOTA

CITY           SKY/WX    TMP DP  RH WIND       PRES   REMARKS
CHAMBERLAIN    MOSUNNY   78  59  52 N14       29.82R
HURON          PTSUNNY   74  69  85 N10       29.78R
MADISON        FAIR      72  72 100 S5        29.78F
MITCHELL       MOSUNNY   82  67  60 NW5       29.77F
SIOUX FALLS    CLOUDY    70  65  84 CALM      29.77S
WINNER         FAIR      82  58  43 N20G29    29.85S
YANKTON        PTSUNNY   68  64  88 W7        29.77S THUNDER
$$

MNZ071-072-080-081-089-090-097-098-300000-
SOUTHWEST MINNESOTA

CITY           SKY/WX    TMP DP  RH WIND       PRES   REMARKS
FAIRMONT       CLOUDY    72  64  78 W6        29.78R
JACKSON        DRIZZLE   70  64  83 NW5       29.80R
LUVERNE        LGT RAIN  68  63  83 CALM      29.79R
MARSHALL       CLOUDY    70  66  88 CALM      29.77S
MONTEVIDEO     CLOUDY    75  73  94 CALM      29.76F
PIPESTONE      CLOUDY    68  64  88 CALM      29.79S
REDWOOD FALLS  RAIN      67  66  97 W7        29.76S FOG
TRACY          LGT RAIN  69  67  93 CALM      29.79R
WINDOM         LGT RAIN  70  64  83 N6        29.80R
WORTHINGTON    CLOUDY    70  68  94 S6        29.80R
$$

IAZ001>003-012>014-020>022-031-032-NEZ013-014-SDZ071-300000-
NORTHWEST IOWA

CITY           SKY/WX    TMP DP  RH WIND       PRES   REMARKS
CHEROKEE       CLOUDY    70  68  93 CALM      29.77F
DENISON        CLOUDY    72  70  94 SE6       29.76S
ESTHERVILLE    CLOUDY    71  66  84 CALM      29.78R
LE MARS        CLOUDY    72  70  94 CALM      29.79R
ORANGE CITY    CLOUDY    73  66  78 CALM      29.79S
SHELDON        CLOUDY    70  68  94 CALM      29.77F
SIOUX CITY     CLOUDY    74  68  81 CALM      29.77R
SPENCER        CLOUDY    72  66  81 W3        29.79R
STORM LAKE     CLOUDY    70  70 100 N3        29.79R
$$

ABBREVIATIONS USED IN REMARKS
   TC - TEMPERATURE IN CELSIUS
  WCI - WIND CHILL INDEX
   HX - HEAT INDEX
  VSB - VISIBILITY




USA.gov is the U.S. government's official web portal to all federal, state and local government web resources and services.